Location: Arlington
(40.6323°N, 74.1651°W)
Time: 11:40:28
(UTC+00:00)

COBE Rocket - Pass Details

Date: 22 November 2019
Orbit: 679 x 783 km, 97.1° (Epoch: 09 December)

Event Time Altitude Azimuth Distance (km) Brightness Sun altitude
Rises 21:55:33 0° 20° (NNE) 3,086 6.7 -4.5°
Reaches altitude 10° 21:58:00 10° 29° (NNE) 2,151 5.9 -5.0°
Maximum altitude 22:02:20 36° 96° (E) 1,076 4.4 -5.7°
Drops below altitude 10° 22:06:35 10° 163° (SSE) 2,112 6.4 -6.5°
Sets 22:08:57 0° 172° (S) 3,021 7.3 -6.9°
